Regional Weather Roundup
Issued by NWS Goodland, KS

Home | Current Version | Previous Version | Text Only | Print | Product List | Glossary Off
Versions: 1 2 3 4 5 6 7 8 9 10 11 12 13 14 15 16 17 18 19 20 21 22 23 24 25 26 27 28 29 30 31 32 33 34 35 36 37 38 39 40 41 42 43 44 45 46 47 48 49 50

905
ASUS43 KGLD 282359
RWRGLD

GOODLAND FORECAST AREA HOURLY WEATHER ROUNDUP
NATIONAL WEATHER SERVICE GOODLAND KS
600 PM MDT TUE MAR 28 2017

...OFFICIAL OBSERVATIONS...

CITY           SKY/WX    TMP DP  RH WIND       PRES   REMARKS
GOODLAND KS    LGT RAIN  40  39  97 E13       29.94S
HILL CITY KS   RAIN      46  46 100 NE13      29.98F FOG
IMPERIAL NEB   LGT RAIN  43  41  93 E15       29.97F
MCCOOK NEB     RAIN      46  46 100 NE5       30.00F FOG
AKRON CO       LGT RAIN  42  40  92 SE20G26   29.91R FOG
BURLINGTON CO  CLOUDY    42  40  92 E18G25    29.90F
LIMON CO       CLOUDY    41  40  96 SE14      29.89R
$$

...UNOFFICIAL OBSERVATIONS...

CITY           SKY/WX    TMP DP  RH WIND       PRES   REMARKS
NORTON KS      RAIN      45  43  93 E5        30.01R
SHARON SPRINGS   N/A     42  41  95 E20         N/A
TRENTON NEB      N/A     43  32  65 SE7         N/A
KIT CARSON CO    N/A     42  38  87 MISG        N/A
YUMA CO        CLOUDY    39  37  93 E16       29.94R
$$




USA.gov is the U.S. government's official web portal to all federal, state and local government web resources and services.